Iowa City, IA

9:05 PM CST on December 15, 2019 (GMT -0600)
Iowa City Municipal

Weather History for KIOW - October, 2019

Change the Weather History Date:

Wednesday, October 16, 2019

  Actual Average Record
Temperature  
Mean Temperature 44 °F 52 °F  
Max Temperature 51 °F 63 °F 88 °F (1950)
Min Temperature 37 °F 41 °F 24 °F (1952)
Degree Days  
Heating Degree Days 21 13  
Month to date heating degree days 179 173  
Since 1 July heating degree days 186 285  
Cooling Degree Days 0 0  
Month to date cooling degree days 18 10  
Year to date cooling degree days 1175 912  
Moisture  
Dew Point 36 °F    
Average Humidity 66    
Maximum Humidity 82    
Minimum Humidity 50    
Precipitation  
Precipitation 0.00 in 0.09 in 0.69 in (1980)
Month to date precipitation 1.60 1.46  
Year to date precipitation 38.57 31.00  
Sea Level Pressure  
Sea Level Pressure 30.09 in    
Wind  
Wind Speed 11 mph (NW)    
Max Wind Speed 21 mph    
Max Gust Speed 32 mph    
Visibility 10 miles    
Events      
T = Trace of Precipitation, MM = Missing Value Source: NWS Daily Summary

Daily Weather History Graph

Daily Weather History Graph

Search for Another Location

Airport or City:

Astronomy

Oct. 16, 2019 Rise Set
Actual Time 7:19 AM CDT 6:23 PM CDT
Civil Twilight 6:51 AM CDT 6:51 PM CDT
Nautical Twilight 6:18 AM CDT 7:23 PM CDT
Astronomical Twilight 5:46 AM CDT 7:55 PM CDT
Moon 8:15 PM CDT 9:51 AM CDT
Length of Visible Light 12h 00m
Length of Day
11h 04m
Waning Gibbous, 92% of the Moon is Illuminated
Oct 16
Waning Gibbous
Oct 21
Last Quarter
Oct 27
New
Nov 4
First Quarter
Nov 12
Full

Hourly Weather History & Observations

Time (CDT) Temp. Windchill Dew Point Humidity Pressure Visibility Wind Dir Wind Speed Gust Speed Precip Events Conditions
12:52 AM 45.0 °F 38.9 °F 37.0 °F 74% 30.03 in 10.0 mi WNW 12.7 mph 20.7 mph N/A   Clear
1:52 AM 45.0 °F 38.2 °F 37.0 °F 74% 30.02 in 10.0 mi WNW 15.0 mph 24.2 mph N/A   Scattered Clouds
2:52 AM 45.0 °F 38.5 °F 37.0 °F 74% 30.04 in 10.0 mi NW 13.8 mph - N/A   Partly Cloudy
3:52 AM 46.0 °F 39.6 °F 37.9 °F 73% 30.03 in 10.0 mi NW 15.0 mph 21.9 mph N/A   Overcast
4:52 AM 46.0 °F 40.2 °F 37.9 °F 73% 30.04 in 10.0 mi WNW 12.7 mph - N/A   Overcast
5:34 AM 46.0 °F 40.2 °F 37.0 °F 71% 30.05 in 10.0 mi NW 12.7 mph 23.0 mph N/A   Overcast
5:50 AM 46.4 °F 39.8 °F 35.6 °F 66% 30.05 in 10.0 mi NW 16.1 mph 26.5 mph N/A   Overcast
5:52 AM 46.9 °F - 36.0 °F 66% 30.06 in 10.0 mi NW 16.1 mph 26.5 mph N/A   Overcast
6:52 AM 46.9 °F - 33.1 °F 59% 30.07 in 10.0 mi North 16.1 mph 26.5 mph N/A   Overcast
7:52 AM 46.9 °F - 33.1 °F 59% 30.08 in 10.0 mi NNW 16.1 mph 32.2 mph N/A   Overcast
8:52 AM 46.9 °F - 35.1 °F 63% 30.10 in 10.0 mi NNW 15.0 mph - N/A   Overcast
9:21 AM 46.9 °F - 35.1 °F 63% 30.10 in 10.0 mi NNW 11.5 mph 21.9 mph N/A   Overcast
9:52 AM 46.0 °F 40.6 °F 36.0 °F 68% 30.12 in 10.0 mi NW 11.5 mph - N/A   Overcast
10:13 AM 46.9 °F - 36.0 °F 66% 30.11 in 10.0 mi NW 15.0 mph 26.5 mph N/A   Overcast
10:52 AM 48.9 °F - 37.0 °F 64% 30.13 in 10.0 mi NNW 16.1 mph 21.9 mph N/A   Overcast
11:52 AM 48.9 °F - 36.0 °F 61% 30.14 in 10.0 mi NW 15.0 mph 23.0 mph N/A   Overcast
12:52 PM 50.0 °F - 35.1 °F 57% 30.13 in 10.0 mi NW 16.1 mph 24.2 mph N/A   Overcast
1:52 PM 51.1 °F - 36.0 °F 56% 30.12 in 10.0 mi NW 11.5 mph 21.9 mph N/A   Overcast
2:52 PM 50.0 °F - 35.1 °F 57% 30.11 in 10.0 mi NW 15.0 mph - N/A   Overcast
3:52 PM 51.1 °F - 34.0 °F 52% 30.11 in 10.0 mi NNW 9.2 mph 19.6 mph N/A   Overcast
4:52 PM 51.1 °F - 34.0 °F 52% 30.10 in 10.0 mi NW 9.2 mph - N/A   Overcast
5:52 PM 50.0 °F - 34.0 °F 54% 30.10 in 10.0 mi NW 9.2 mph - N/A   Overcast
6:52 PM 48.0 °F - 35.1 °F 61% 30.10 in 10.0 mi WNW 4.6 mph - N/A   Overcast
7:52 PM 42.1 °F - 35.1 °F 76% 30.11 in 10.0 mi Calm Calm - N/A   Clear
8:52 PM 42.1 °F 38.4 °F 37.0 °F 82% 30.12 in 10.0 mi West 5.8 mph - N/A   Overcast
9:52 PM 43.0 °F 39.5 °F 36.0 °F 76% 30.12 in 10.0 mi West 5.8 mph - N/A   Overcast
10:52 PM 42.1 °F - 35.1 °F 76% 30.11 in 10.0 mi Calm Calm - N/A   Clear
11:52 PM 39.9 °F - 34.0 °F 79% 30.12 in 10.0 mi Calm Calm - N/A   Clear